Location: Domachevo
(51.7500°N, 23.6000°E)
Time: 08:25:37
(UTC+03:00)

Genesis I - Visible Passes

Search period start: 23 September 2017 00:00
Search period end: 03 October 2017 00:00
Orbit: 498 x 532 km, 64.5° (Epoch: 22 September)

Date Brightness Start Highest point End Pass type
(mag) Time Alt. Az. Time Alt. Az. Time Alt. Az.
23 Sep 6.1 03:09:58 16° NNE 03:09:58 16° NNE 03:11:09 10° NNE visible
23 Sep 5.9 04:44:57 10° NNW 04:46:56 13° N 04:48:58 10° NNE visible
23 Sep 5.7 06:23:11 10° NNW 06:26:04 18° NNE 06:28:55 10° ENE visible
24 Sep 6.3 02:54:28 13° NNE 02:54:28 13° NNE 02:55:11 10° NNE visible
24 Sep 5.9 04:29:26 11° NNW 04:30:59 13° N 04:33:00 10° NNE visible
24 Sep 5.7 06:07:13 10° NNW 06:10:06 19° NNE 06:12:58 10° ENE visible
25 Sep 6.6 02:38:58 11° NNE 02:38:58 11° NNE 02:39:12 10° NNE visible
25 Sep 5.9 04:13:55 12° NNW 04:15:01 13° N 04:17:02 10° NNE visible
25 Sep 5.7 05:51:15 10° NNW 05:54:08 19° NNE 05:57:01 10° ENE visible
26 Sep 6.0 03:58:27 13° NNW 03:59:04 13° N 04:01:04 10° NNE visible
26 Sep 5.7 05:35:16 10° NNW 05:38:10 19° NNE 05:41:04 10° ENE visible
27 Sep 6.1 03:43:00 13° N 03:43:06 13° N 03:45:07 10° NNE visible
27 Sep 5.8 05:19:17 10° NNW 05:22:12 19° NNE 05:25:06 10° ENE visible
28 Sep 6.2 03:27:36 13° N 03:27:36 13° N 03:29:09 10° NNE visible
28 Sep 5.8 05:03:19 10° NNW 05:06:14 19° NNE 05:09:10 10° ENE visible
28 Sep 3.8 06:40:39 10° NW 06:44:38 63° NE 06:48:37 10° SE visible
29 Sep 6.4 03:12:16 12° NNE 03:12:16 12° NNE 03:13:11 10° NNE visible
29 Sep 5.8 04:47:20 10° NNW 04:50:16 19° NNE 04:53:12 10° ENE visible
29 Sep 3.7 06:24:40 10° NW 06:28:39 63° NE 06:32:38 10° SE visible
30 Sep 6.6 02:57:01 11° NNE 02:57:01 11° NNE 02:57:13 10° NNE visible
30 Sep 5.8 04:32:00 13° NNW 04:34:18 19° NNE 04:37:15 10° ENE visible
30 Sep 3.7 06:08:41 10° NW 06:12:41 64° NE 06:16:40 10° SE visible
01 Oct 5.7 04:16:52 16° N 04:18:20 19° NNE 04:21:18 10° ENE visible
01 Oct 3.6 05:52:42 10° NW 05:56:43 65° NE 06:00:41 10° SE visible
02 Oct 5.7 04:01:54 19° NNE 04:02:21 20° NNE 04:05:20 10° ENE visible
02 Oct 3.6 05:36:54 11° NW 05:40:44 66° NE 05:44:43 10° SE visible
